• Join FlightAware (Why Join?)
  • Login
  • US Flag GB Flag 
21:56 EDT


 

Airport Tracker/Info


-or-


 

Live Flight TrackerFlight Track Log ✈ SWA902 ✈ 28-Apr-2013 ✈ KDEN - KSLC

Flight Track Log - Related Links

Times and Time Zones

All times are in EDT time to prevent confusion due to time zone crossing. See the SWA902 flight status page for this flight to view local times or setup timezone preferences in your user account.

Time Position Orientation Groundspeed Altitude Reporting Facility
EDT Latitude Longitude Course Direction KTS MPH feet Rate Location/Type
23:50 39.9147 -104.7417 267° West 204 235 7,900  Level Denver Center
23:51 39.9233 -104.8317 277° West 236 272 10,900 2,700 Climbing Denver Center
23:52 39.9319 -104.9431 276° West 316 364 13,500 2,700 Climbing Denver Center
23:53 39.9372 -105.0597 273° West 327 376 17,000 3,000 Climbing Denver Center
23:54 39.9475 -105.2156 275° West 356 410 20,300 2,640 Climbing Denver Center
23:55 39.9550 -105.3544 274° West 383 441 22,500 2,520 Climbing Denver Center
23:57 39.9776 -105.4998 281° West  Level Estimated
23:57 39.9708 -105.6372 281° West 380 437 28,100  Level Denver Center
23:59 39.9722 -105.7831 271° West 400 460 29,400 1,680 Climbing Denver Center
00:00 39.9744 -105.9581 271° West 410 472 31,900 2,160 Climbing Denver Center
00:01 39.9839 -106.1056 275° West 407 468 33,800 1,740 Climbing Denver Center
00:02 39.9925 -106.2536 274° West 407 468 35,500 1,800 Climbing Denver Center
00:03 39.9997 -106.3981 274° West 398 458 37,500 1,680 Climbing Denver Center
00:04 40.0069 -106.5478 274° West 385 443 39,000 960 Climbing Denver Center
00:05 40.0139 -106.6822 274° West 385 443 39,500 480 Climbing Denver Center
00:06 40.0211 -106.8214 274° West 397 457 40,000 240 Climbing Denver Center
00:07 40.0289 -106.9839 274° West 402 463 40,000  Level Denver Center
00:08 40.0350 -107.1194 273° West 396 456 40,000  Level Denver Center
00:09 40.0428 -107.2800 274° West 396 456 40,000  Level Denver Center
00:10 40.0486 -107.4183 273° West 400 460 40,000  Level Denver Center
00:11 40.0536 -107.5550 273° West 396 456 40,000  Level Denver Center
00:12 40.0603 -107.7153 273° West 396 456 40,000  Level Denver Center
00:13 40.0656 -107.8508 273° West 393 452 40,000  Level Denver Center
00:14 40.0708 -107.9867 273° West 393 452 40,000  Level Denver Center
00:15 40.0781 -108.1408 274° West 385 443 40,000  Level Denver Center
00:16 40.0836 -108.2742 273° West 386 444 40,000  Level Denver Center
00:17 40.0906 -108.4317 273° West 390 449 40,000  Level Denver Center
00:18 40.0953 -108.5642 273° West 386 444 40,000  Level Denver Center
00:19 40.1031 -108.7425 273° West 387 445 40,000 -300 Level Denver Center
00:20 40.1078 -108.8756 273° West 386 444 39,400 -840 Descending Denver Center
00:21 40.1136 -109.0317 273° West 387 445 38,400 -1,140 Descending Denver Center
00:22 40.1181 -109.1658 273° West 388 447 37,100 -1,800 Descending Denver Center
00:23 40.1228 -109.3019 273° West 393 452 34,800 -1,920 Descending Denver Center
00:24 40.1283 -109.4625 273° West 396 456 33,300 -1,260 Descending Denver Center
00:25 40.1333 -109.6033 273° West 404 465 32,300 -960 Descending Denver Center
00:26 40.1378 -109.7431 272° West 402 463 31,400 -1,080 Descending Denver Center
00:27 40.1422 -109.9039 272° West 397 457 30,200 -720 Descending Denver Center
00:28 40.1467 -110.0408 272° West 394 453 30,000 -120 Descending Denver Center
00:29 40.1511 -110.1981 272° West 390 449 30,000  Level Denver Center
00:31 40.1547 -110.3544 272° West 386 444 30,000  Level Salt Lake Center
00:32 40.1597 -110.5108 272° West 387 445 30,000  Level Salt Lake Center
00:33 40.1625 -110.6464 272° West 390 449 30,000 -60 Level Salt Lake Center
00:34 40.1661 -110.8053 272° West 394 453 29,900 -780 Descending Salt Lake Center
00:35 40.1697 -110.9364 272° West 395 455 28,500 -1,860 Descending Salt Lake Center
00:36 40.1714 -111.0772 271° West 389 448 26,200 -2,280 Descending Salt Lake Center
00:37 40.1742 -111.2122 272° West 375 432 23,900 -2,220 Descending Salt Lake Center
00:38 40.1778 -111.3417 272° West 359 413 21,800 -2,340 Descending Salt Lake Center
00:38 40.1719 -111.4347 265° West 356 410 20,400 -2,100 Descending Salt Lake Center
00:39 40.1794 -111.4664 287° West 345 397 19,700 -2,160 Descending Salt Lake Center
00:40 40.1794 -111.6206 270° West 332 382 17,000 -2,520 Descending Salt Lake Center
00:41 40.2419 -111.6961 317° Northwest 320 368 14,600 -2,160 Descending Salt Lake Center
00:42 40.3117 -111.7669 322° Northwest 317 365 12,900 -1,860 Descending Salt Lake Center
00:43 40.3844 -111.8297 327° Northwest 314 361 10,900 -1,620 Descending Salt Lake Center
00:43 40.4022 -111.8514 317° Northwest 311 358 10,800 -720 Descending Salt Lake Center
00:44 40.4514 -111.8889 330° Northwest 291 335 10,200 -840 Descending Salt Lake Center
00:44 40.4672 -111.9081 317° Northwest 278 320 10,000 -720 Descending Salt Lake Center
00:45 40.5106 -111.9408 330° Northwest 261 300 9,500 -840 Descending Salt Lake Center
00:45 40.5247 -111.9592 315° West 241 277 9,200 -1,260 Descending Salt Lake Center
00:46 40.5656 -111.9708 348° North 225 259 8,200 -1,440 Descending Salt Lake Center
00:46 40.5842 -111.9758 348° North 217 250 7,800 -1,140 Descending Salt Lake Center
00:47 40.6217 -111.9778 358° North 201 231 7,100 -1,020 Descending Salt Lake Center
00:47 40.6417 -111.9844 346° North 188 216 6,700 -900 Descending Salt Lake Center
00:48 40.6703 -111.9833 North 180 207 6,200 -780 Descending Salt Lake Center
00:49 40.7150 -111.9881 355° North 163 188 5,400 -840 Descending Salt Lake Center
00:50 40.7533 -111.9925 355° North 142 163 4,600 -600 Descending Salt Lake Center
00:51 40.7911 -111.9967 355° North 138 159 4,200 -420 Descending Salt Lake Center
00:53 40.7884 -111.9778 90° East  Level Estimated